Location: Unspecified
(0.0000°N, 0.0000°E)
Time: 09:28:31
(UTC+02:00)

ISS - All Passes

Search period start: 28 August 2015 00:00
Search period end: 07 September 2015 00:00
Orbit: 399 x 401 km, 51.6° (Epoch: 28 August)

Date Brightness Start Highest point End Pass type
(mag) Time Alt. Az. Time Alt. Az. Time Alt. Az.
28 Aug - 09:05:42 10° SSW 09:08:57 83° SE 09:12:11 10° NE daylight
28 Aug - 20:39:04 10° NNW 20:42:09 44° NE 20:45:16 10° SE visible
29 Aug - 08:12:43 10° S 08:15:27 25° SE 08:18:14 10° ENE daylight
29 Aug - 19:46:38 10° NNE 19:48:37 16° NE 19:50:44 10° E daylight
29 Aug - 21:22:56 10° W 21:24:55 15° SW 21:26:48 10° SSW visible
30 Aug - 08:55:29 10° WSW 08:58:11 24° NW 09:00:50 10° N daylight
30 Aug - 20:28:16 10° NW 20:31:21 41° SW 20:34:25 10° SSE visible
31 Aug - 08:01:25 10° SW 08:04:39 76° NW 08:07:52 10° NNE daylight
31 Aug - 19:34:39 10° NNW 19:37:49 57° NE 19:41:01 10° SE daylight
01 Sep - 07:08:10 10° S 07:11:06 32° SE 07:14:03 10° ENE visible
01 Sep - 18:41:53 10° N 18:44:14 19° NE 18:46:41 10° ESE daylight
01 Sep - 20:19:06 10° W 20:20:33 12° SW 20:21:50 10° SSW visible
02 Sep - 06:16:13 10° SSE 06:17:26 12° SE 06:18:50 10° ESE visible
02 Sep - 07:51:17 10° WSW 07:53:45 19° NW 07:56:08 10° N daylight
02 Sep - 19:23:55 10° WNW 19:26:52 32° SW 19:29:49 10° SSE daylight
03 Sep - 06:56:56 10° SW 07:00:08 59° NW 07:03:18 10° NNE visible
03 Sep - 18:30:03 10° NNW 18:33:16 74° NE 18:36:30 10° SE daylight
04 Sep - 06:03:27 10° SSW 06:06:31 40° SE 06:09:34 10° NE visible
04 Sep - 17:37:01 10° N 17:39:37 23° NE 17:42:19 10° ESE daylight
05 Sep - 05:11:00 10° SSE 05:12:49 14° SE 05:14:45 10° E night (unlit)
05 Sep - 06:46:57 10° W 06:49:06 16° NW 06:51:09 10° NNW visible
05 Sep - 18:19:24 10° WNW 18:22:11 26° SW 18:24:57 10° S daylight
06 Sep - 05:52:16 10° SW 05:55:23 46° NW 05:58:30 10° NNE visible
06 Sep - 17:25:17 10° NW 17:28:30 86° WSW 17:31:45 10° SE daylight
